Погода в Ивановке

Украина / Кировоградская область     49°03′11″N   32°22′20″E
темп.,
°C
ветер,
м/с
пор.,
м/с
влажн.,
%
обл.,
%
осадки,
мм/ч
давл.,
гПа
погр.,
м
16 мая, вс
вс1600:00+13з128010 0.0 101211
03:00+12юз11855 0.0 101310
06:00+12с00818 0.0 101210
09:00+18св2265100 0.0 1012311
12:00+22в445295 0.0 10121251
15:00+22всв4548100 0.0 10111700
18:00+20св3664100 0.0 1010153
21:00+17ссв3667100 0.0 100887
17 мая, пн
пн1700:00+15всв41182100 0.0 1008230
03:00+15всв1394100 1.4 100666
06:00+14ссз5997100 1.6 1004281
09:00+18ссв5784100 1.6 1004515
12:00+22ссв4466100 0.0 1001818
15:00+23юв456327 1.1 10001178
18:00+22ююв68740 2.3 1000963
21:00+17юв49890 3.6 1000216
18 мая, вт
вт1800:00+14ююз81295100 0.2 1002737
03:00+12ююз5129390 0.2 1004357
06:00+12ююв4109722 0.0 1004290
09:00+17ю710787 0.0 1004574
12:00+19ю81072100 3.4 10041214
15:00+16ююв81384100 5.3 1003987
18:00+17ююв688389 0.1 1002808
21:00+14ю489118 2.7 1002172
19 мая, ср
ср1900:00+11юз5109531 0.0 1002309
03:00+9ююз499687 0.0 1002277
06:00+11ю5896100 0.0 1002425
09:00+12зюз4795100 0.2 1002549
12:00+12з6992100 0.3 1004825
15:00+12з61291100 0.9 1005963
18:00+11з81387100 0.3 1007933
21:00+11з6148733 0.3 1009611
20 мая, чт
чт2000:00+10зюз614914 0.0 1010443
03:00+8зюз411945 0.0 1011214
06:00+8юз369468 0.0 1012123
09:00+14юз2273100 0.0 1012415
12:00+17ю3460100 0.0 10111065
15:00+18ююз4562100 0.2 10101007
18:00+14с3385100 1.7 101099
21:00+13св61094100 2.8 1008342